User: anonymous   Login
Location: Croydon
(51.3762°N, 0.0982°W)
Time: 21:48:19
(UTC+00:00)
Language:

Tiangong 2 - Orbit

View from above orbital plane
View from above orbital plane
View from above satellite
View from above satellite

Ground track
Ground track

The orbit data is extracted from the following two-line orbital elements,

1 41765U 16057A   19084.46549212  .00003507  00000-0  45035-4 0  9993
2 41765  42.7837 106.2027 0007200  35.9844 109.7165 15.61010670143954
Epoch (UTC): 25 March 2019 11:10:18
Eccentricity: 0.0007200
inclination: 42.7837°
perigee height: 380 km
apogee height: 389 km
right ascension of ascending node: 106.2027°
argument of perigee: 35.9844°
revolutions per day: 15.61010670
mean anomaly at epoch: 109.7165°
orbit number at epoch: 14395

The dashed part of the orbit path shows where the satellite is in the earth's shadow,  

DLR